Location: Bailleul
(50.3375°N, 2.8513°E)
Time: 13:37:02
(UTC+00:00)

SPOT 1/Viking Rocket - Pass Details

Date: 16 June 2021
Orbit: 778 x 793 km, 98.4° (Epoch: 29 July)

Event Time Altitude Azimuth Distance (km) Brightness Sun altitude
Exits shadow 21:05:00 - 177° (S) 2,884 6.0 -7.8°
Reaches altitude 10° 21:06:25 10° 180° (S) 2,326 5.5 -7.9°
Maximum altitude 21:11:28 57° 259° (W) 919 4.1 -8.4°
Drops below altitude 10° 21:16:33 10° 338° (NNW) 2,342 7.5 -8.9°
Sets 21:18:55 0° 343° (NNW) 3,275 8.4 -9.1°
